Location: Unspecified
(0.0000°N, 0.0000°E)
Time: 13:25:35
(UTC+00:00)

INTEGRAL - Pass Details

Date: 23 January 2022
Orbit: 2374 x 147106 km, 74.7° (Epoch: 28 May)

Event Time Altitude Azimuth Distance (km) Brightness Sun altitude
Rises 01:14:10 0° 47° (NE) 121,344 13.6 -65.2°
Reaches altitude 10° 02:11:08 10° 46° (NE) 116,348 13.5 -54.9°
Maximum altitude 07:33:06 53° 353° (N) 84,392 12.8 19.1°
Drops below altitude 10° 12:22:41 10° 289° (WNW) 49,123 11.7 70.4°
Sets 13:06:10 0° 283° (WNW) 42,267 11.4 66.5°
